This demonstration page uses our WeatherBlox Daily Observations layout. Learn more.

Left ArrowRight Arrow

30.21309, -93.2044

Hourly Observations for April 13, 2022

Temp ( °F °C ) Dew Point ( °F °C ) Humidity (%) Winds ( mph kmh ) Pressure ( in mb ) Visibility ( mi km ) Precip ( " mm )
12:15 am 00:15 Cloudy 73 22.5 69 20.4 88 88 S 9 15 29.90 1013 10 16 0.00 0.00
12:35 am 00:35 Cloudy 73 22.6 69 20.3 87 87 S 12 19 29.89 1012 7 11 0.00 0.00
12:55 am 00:55 Cloudy 72 22.1 69 20.3 90 90 S 9 15 29.89 1012 7 11 0.00 0.00
1:15 am 01:15 Cloudy 72 22.2 69 20.3 89 89 SSE 8 13 29.89 1012 7 11 0.00 0.00
1:35 am 01:35 Cloudy 72 22 69 20.3 90 90 SE 6 9 29.89 1012 7 11 0.00 0.00
1:55 am 01:55 Cloudy 72 22.2 68 20.2 89 89 ESE 7 11 29.88 1012 7 11 0.00 0.00
2:15 am 02:15 Cloudy 72 22.3 68 20.1 87 87 SE 9 15 29.86 1011 7 11 0.00 0.00
2:35 am 02:35 Cloudy 72 22.4 68 20.1 87 87 SSE 10 17 29.86 1011 10 16 0.00 0.00
2:55 am 02:55 Cloudy 72 22 68 20 88 88 SSE 12 19 29.85 1011 10 16 0.00 0.00
3:15 am 03:15 Cloudy 72 22.2 68 20 87 87 SE 10 17 29.83 1010 10 16 0.00 0.00
3:35 am 03:35 Partly Cloudy 71 21.7 68 19.8 89 89 ESE 6 9 29.82 1010 10 16 0.00 0.00
3:55 am 03:55 Clear 71 21.4 67 19.7 90 90 ESE 7 11 29.82 1010 10 16 0.00 0.00
4:15 am 04:15 Clear 69 20.8 67 19.4 92 92 ESE 8 13 29.81 1009 7 11 0.00 0.00
4:35 am 04:35 Partly Cloudy 69 20.6 67 19.2 92 92 ESE 5 7 29.82 1010 7 11 0.00 0.00
4:55 am 04:55 Partly Cloudy 70 20.9 67 19.5 92 92 SE 9 15 29.83 1010 7 11 0.00 0.00
5:15 am 05:15 Partly Cloudy 70 20.9 67 19.5 92 92 SSE 10 17 29.83 1010 7 11 0.00 0.00
5:35 am 05:35 Mostly Cloudy 70 21.2 67 19.7 91 91 SSE 12 19 29.83 1010 7 11 0.00 0.00
6:00 am 06:00 Cloudy 72 22 68 20 88 88 SSE 12 19 29.83 1010 10 16 0.00 0.00
6:45 am 06:45 Cloudy with Mist and Fog 72 22 68 20 88 88 SE 15 24 29.81 1009 7 11 0.00 0.00
7:50 am 07:50 Cloudy with Mist and Fog 72 22 68 20 88 88 SSE 16 26 29.83 1010 7 11 0.00 0.00
8:50 am 08:50 Cloudy with Mist and Fog 73 23 70 21 89 89 SSE 17 28 29.82 1010 7 11 0.00 0.00
9:45 am 09:45 Cloudy with Mist and Fog 73 23 70 21 89 89 SSE 18 30 29.83 1010 6 10 0.00 0.00
10:45 am 10:45 Cloudy with Mist and Fog 75 24 70 21 83 83 S 20 31 29.82 1010 6 10 0.00 0.00
11:08 am 11:08 Cloudy with Mist and Fog 75 24 72 22 89 89 S 22 35 29.81 1009 6 10 0.00 0.00
11:45 am 11:45 Cloudy with Mist and Fog 79 26 72 22 79 79 S 24 39 29.81 1009 6 10 0.00 0.00
12:45 pm 12:45 Cloudy with Mist and Fog 79 26 72 22 79 79 S 24 39 29.81 1009 6 10 0.00 0.00
1:50 pm 13:50 Cloudy with Mist and Fog 81 27 72 22 74 74 S 26 43 29.79 1009 6 10 0.00 0.00
2:50 pm 14:50 Cloudy with Mist and Fog 81 27 72 22 74 74 S 26 43 29.78 1008 6 10 0.00 0.00
3:45 pm 15:45 Cloudy with Mist and Fog 79 26 72 22 79 79 S 22 35 29.77 1008 6 10 0.00 0.00
4:45 pm 16:45 Cloudy with Mist and Fog 77 25 72 22 83 83 S 20 31 29.74 1007 6 10 0.00 0.00
5:47 pm 17:47 Cloudy with Mist and Fog 77 25 72 22 83 83 S 22 35 29.73 1007 5 8 0.00 0.00
6:50 pm 18:50 Cloudy with Mist and Fog 75 24 72 22 89 89 SSW 20 31 29.75 1007 5 8 0.00 0.00
7:47 pm 19:47 Mostly Cloudy with Mist and Fog 75 24 72 22 89 89 SSW 18 30 29.76 1008 5 8 0.00 0.00
8:55 pm 20:55 Mostly Cloudy with Mist and Fog 75 24 72 22 89 89 WSW 10 17 29.82 1010 5 8 0.00 0.00
9:52 pm 21:52 Mostly Cloudy with Light Rain 64 18 61 16 88 88 N 5 7 29.89 1012 6 10 0.00 0.00
10:15 pm 22:15 Cloudy 64 17.9 62 16.4 91 91 NNW 5 7 29.90 1013 10 16 0.00 0.00
10:35 pm 22:35 Cloudy 65 18.2 62 16.6 90 90 N 5 7 29.91 1013 10 16 0.00 0.00
10:55 pm 22:55 Cloudy 65 18.4 61 16.1 87 87 N 6 9 29.92 1013 10 16 0.00 0.00
11:15 pm 23:15 Cloudy 65 18.6 61 15.9 84 84 N 6 9 29.93 1014 10 16 0.00 0.00
11:35 pm 23:35 Cloudy 66 19 61 16.1 83 83 N 10 17 29.92 1013 10 16 0.00 0.00
11:55 pm 23:55 Cloudy 67 19.5 60 15.3 77 77 N 12 19 29.92 1013 10 16 0.00 0.00

Powered by AerisWeather